Regional Weather Roundup
Issued by NWS

Home | Current Version | Previous Version | Graphics & Text | Print | Product List | Glossary On
Versions: 1 2 3 4 5 6 7 8 9 10 11 12 13 14 15 16 17 18 19 20 21 22 23 24 25 26 27 28 29 30 31 32 33 34 35 36 37 38 39 40 41 42 43 44 45 46 47 48 49 50
000
ASUS45 KSLC 171510
RWRUT

UTAH REGIONAL WEATHER ROUNDUP
NATIONAL WEATHER SERVICE SALT LAKE CITY UT
800 AM MST FRI NOV 17 2017

UTZ001>011-023>025-171600-

NORTHERN UTAH

CITY           SKY/WX    TMP DP  RH WIND       PRES   REMARKS
BRIGHAM CITY   CLOUDY    42  37  82 CALM      29.77F
HILL AFB       LGT RAIN  36  34  94 E7        29.80F FOG     WCI  30
LOGAN          CLOUDY    37  35  92 N6        29.77R WCI  32
OGDEN          LGT RAIN  38  35  89 SE9       29.79F WCI  31
SALT LAKE CITY LGT RAIN  41  38  89 N12       29.82S
TOOELE VALLEY  LGT RAIN  39  37  93 NE9       29.80F WCI  33
WENDOVER       LGT RAIN  45  38  76 W5        29.76S
HEBER CITY     LGT RAIN  46  36  66 SW26G36   29.69R
WEST JORDAN    CLOUDY    39  39 100 N7        29.82S WCI  34

$$

UTZ011>015-024>027-171600-

CENTRAL/NORTHEAST UTAH

CITY           SKY/WX    TMP DP  RH WIND       PRES   REMARKS
PROVO AIRPORT  CLOUDY    45  40  82 NW28G33   29.78R
MOAB/CANYONLAN MOCLDY    62  35  36 SW20G32   29.77S
DELTA          MOCLDY    52  36  54 S26G33    29.78R
PRICE          CLOUDY    45  33  63 NE7       29.78S
RICHFIELD      CLEAR     55  36  47 SW23G31   29.85S
ROOSEVELT      CLOUDY    39  34  81 CALM      29.74R
VERNAL         CLOUDY    49  38  65 W7        29.71R

$$

UTZ013>016-019>022-027-171600-

SOUTHERN UTAH

CITY           SKY/WX    TMP DP  RH WIND       PRES   REMARKS
BRYCE CANYON   PTCLDY    44  34  67 SW22G33   29.96S
CEDAR CITY     CLOUDY    53  37  54 S22G31    29.91R
MILFORD        CLOUDY    52  38  58 S21       29.85R
ST GEORGE      PTSUNNY   65  39  38 CALM      29.88R
HANKSVILLE     PTCLDY    59  34  38 SW23      29.81S
KANAB          CLEAR     59  36  41 SW14G25   29.97R
BLANDING         N/A     45  29  54 CALM      30.02R

$$

REGIONAL REPORTS     COLORADO/ARIZONA

CITY           SKY/WX    TMP DP  RH WIND       PRES   REMARKS
CRAIG, CO      CLOUDY    53  29  39 SW23G36   29.71F
GRAND JUNCTION CLOUDY    56  34  43 E8        29.78S
RIFLE, CO      CLOUDY    56  35  45 SW15G30   29.78F
MONTROSE, CO   CLOUDY    56  31  38 SW22G31   29.88F
CORTEZ, CO     CLOUDY    51  32  48 SW14      30.00R
COLORADO CITY    N/A     59  37  44 SW13G18   29.97R
PAGE, AZ       MOCLDY    64  37  36 SW16G30   29.90R
GRAND CANYON   CLOUDY    48  31  51 SW12      30.09R
KINGMAN, AZ    CLOUDY    65  35  33 SW16      30.00R
FLAGSTAFF, AZ  MOCLDY    48  27  44 SW12      30.14R

$$

REGIONAL REPORTS    NEVADA/IDAHO/WYOMING

CITY           SKY/WX    TMP DP  RH WIND       PRES   REMARKS
LAS VEGAS, NV  MOCLDY    67  41  38 SW13G23   29.87R
ELY, NY        PTCLDY    46  32  58 S14G26    29.82R
ELKO, NV       RAIN      36  32  85 W12       29.83R FOG     WCI  28
POCATELLO, ID  CLOUDY    35  33  92 SW15      29.77F WCI  25
BURLEY, ID     LGT SNOW  33  32  96 SW13      29.84R FOG     WCI  24
FORT BRIDGER,  HVY SNOW  34  34 100 CALM      29.80R VSB 1/4
EVANSTON, WY   HVY SNOW  32  32 100 W16G23    29.78R VSB 1/4 WCI  21
ROCK SPRINGS,  HVY SNOW  31  31 100 W9        29.75R VSB 1/4 WCI  23

$$



USA.gov is the U.S. government's official web portal to all federal, state and local government web resources and services.